EW7216 Weather Reports


Display with metric or nautical units.
time (UTC)temp
F
wind
direction
speed
MPH
gust
MPH
rain 1hr
in
rain 24hr
in
rain mn
in
humidity
%
barometer
mb
20260904181104 80 299 4.0 7.0 0.00 0.00 0.00 48 1025.1
20260904180124 80 281 3.0 6.0 0.00 0.00 0.00 49 1024.9
20260904175104 81 283 3.0 4.0 0.00 0.00 0.00 50 1024.8
20260904174104 81 288 3.0 4.0 0.00 0.00 0.00 50 1024.9
20260904173104 81 314 3.0 6.0 0.00 0.00 0.00 50 1024.9
20260904172105 82 302 4.0 8.0 0.00 0.00 0.00 49 1024.9
20260904171106 83 333 5.0 8.0 0.00 0.00 0.00 48 1025.0
20260904170105 83 318 4.0 9.0 0.00 0.00 0.00 46 1025.0
20260904165104 84 278 6.0 10.0 0.00 0.00 0.00 45 1024.8
20260904164104 84 300 5.0 10.0 0.00 0.00 0.00 44 1024.7
20260904163104 84 317 5.0 10.0 0.00 0.00 0.00 43 1024.9
20260904162105 85 283 4.0 9.0 0.00 0.00 0.00 43 1024.7
20260904161105 85 348 5.0 9.0 0.00 0.00 0.00 43 1024.7
20260904160104 85 324 6.0 10.0 0.00 0.00 0.00 42 1024.8
20260904155125 86 305 5.0 13.0 0.00 0.00 0.00 42 1024.6
20260904154106 86 332 4.0 9.0 0.00 0.00 0.00 42 1024.7
20260904153104 86 284 4.0 9.0 0.00 0.00 0.00 42 1024.7
20260904152105 87 314 2.0 10.0 0.00 0.00 0.00 42 1024.8
20260904151105 87 17 1.0 4.0 0.00 0.00 0.00 42 1024.6
20260904150105 87 68 1.0 3.0 0.00 0.00 0.00 41 1024.7
20260904145104 87 18 3.0 9.0 0.00 0.00 0.00 42 1024.7
20260904144124 87 24 2.0 6.0 0.00 0.00 0.00 43 1024.7
20260904143104 87 295 4.0 10.0 0.00 0.00 0.00 43 1024.7
20260904142104 87 294 7.0 14.0 0.00 0.00 0.00 43 1024.8
20260904141104 87 316 5.0 13.0 0.00 0.00 0.00 42 1024.9
20260904140104 88 337 3.0 10.0 0.00 0.00 0.00 40 1024.7
20260904135104 88 300 3.0 9.0 0.00 0.00 0.00 41 1024.6
20260904134104 88 78 3.0 9.0 0.00 0.00 0.00 41 1024.7
20260904133104 88 307 7.0 10.0 0.00 0.00 0.00 41 1024.8
20260904132104 89 223 2.0 9.0 0.00 0.00 0.00 40 1024.9
20260904131104 89 119 1.0 2.0 0.00 0.00 0.00 38 1024.9
20260904130104 90 110 1.0 2.0 0.00 0.00 0.00 38 1024.9
20260904125104 88 138 0.0 2.0 0.00 0.00 0.00 40 1024.9
20260904124105 88 349 2.0 4.0 0.00 0.00 0.00 41 1025.3
20260904123104 88 63 2.0 7.0 0.00 0.00 0.00 40 1025.2
20260904122104 87 276 2.0 8.0 0.00 0.00 0.00 41 1025.2
20260904121104 87 313 3.0 6.0 0.00 0.00 0.00 41 1025.4
20260904120124 87 305 3.0 8.0 0.00 0.00 0.00 41 1025.3
20260904115104 88 334 2.0 6.0 0.00 0.00 0.00 40 1025.4
20260904114104 87 121 1.0 7.0 0.00 0.00 0.00 39 1025.5
20260904113104 87 28 0.0 3.0 0.00 0.00 0.00 37 1025.7
20260904112104 89 156 0.0 3.0 0.00 0.00 0.00 36 1025.7
20260904111104 89 144 0.0 2.0 0.00 0.00 0.00 37 1025.6
20260904110105 88 1 2.0 6.0 0.00 0.00 0.00 39 1025.6
20260904105105 87 54 2.0 4.0 0.00 0.00 0.00 42 1025.7
20260904104104 87 184 2.0 4.0 0.00 0.00 0.00 42 1025.8
20260904103124 88 196 1.0 3.0 0.00 0.00 0.00 42 1025.8
20260904102104 88 136 0.0 1.0 0.00 0.00 0.00 43 1025.9
20260904101105 87 111 1.0 2.0 0.00 0.00 0.00 45 1025.9
20260904100125 87 119 1.0 2.0 0.00 0.00 0.00 45 1026.0
20260904095104 86 153 1.0 1.0 0.00 0.00 0.00 46 1025.9
20260904094104 87 141 0.0 2.0 0.00 0.00 0.00 45 1025.8
20260904093104 85 149 0.0 2.0 0.00 0.00 0.00 46 1025.9
20260904092105 86 109 1.0 2.0 0.00 0.00 0.00 46 1026.0
20260904091105 85 140 0.0 1.0 0.00 0.00 0.00 48 1026.0
20260904090104 85 0.0 0.0 0.00 0.00 0.00 47 1025.8
20260904085104 85 107 1.0 2.0 0.00 0.00 0.00 49 1025.9
20260904084126 84 0.0 1.0 0.00 0.00 0.00 51 1025.9
20260904083104 83 125 0.0 2.0 0.00 0.00 0.00 53 1025.7
20260904082124 83 136 0.0 1.0 0.00 0.00 0.00 54 1025.5
20260904081104 82 113 0.0 1.0 0.00 0.00 0.00 56 1025.5
20260904080104 81 0.0 1.0 0.00 0.00 0.00 57 1025.6
20260904075104 79 126 0.0 2.0 0.00 0.00 0.00 60 1025.3
20260904074104 78 0.0 0.0 0.00 0.00 0.00 62 1025.2
20260904073104 78 0.0 0.0 0.00 0.00 0.00 63 1025.2
20260904072105 77 0.0 0.0 0.00 0.00 0.00 60 1025.1
20260904071105 77 0.0 0.0 0.00 0.00 0.00 60 1025.0
20260904070105 77 0.0 0.0 0.00 0.00 0.00 59 1025.0
20260904065105 76 0.0 0.0 0.00 0.00 0.00 60 1024.8
20260904064104 76 0.0 0.0 0.00 0.00 0.00 60 1024.9
20260904063104 76 0.0 0.0 0.00 0.00 0.00 59 1024.6
20260904062105 75 0.0 0.0 0.00 0.00 0.00 60 1024.6
20260904061105 75 0.0 0.0 0.00 0.00 0.00 61 1024.4
20260904060105 75 0.0 0.0 0.00 0.00 0.00 61 1024.4
20260904055104 75 0.0 0.0 0.00 0.00 0.00 60 1024.4
20260904054104 75 0.0 0.0 0.00 0.00 0.00 61 1024.4
20260904053104 75 0.0 0.0 0.00 0.00 0.00 61 1024.4
20260904052105 74 0.0 0.0 0.00 0.00 0.00 62 1024.4
20260904051105 74 0.0 0.0 0.00 0.00 0.00 63 1024.2
20260904050105 74 0.0 0.0 0.00 0.00 0.00 62 1024.1
20260904045104 74 0.0 0.0 0.00 0.00 0.00 62 1024.1
20260904044104 74 0.0 0.0 0.00 0.00 0.00 62 1024.2
20260904043124 74 0.0 0.0 0.00 0.00 0.00 62 1024.2
20260904042104 74 0.0 0.0 0.00 0.00 0.00 62 1024.0
20260904041125 75 0.0 0.0 0.00 0.00 0.00 63 1024.1
20260904040105 76 217 0.0 2.0 0.00 0.00 0.00 61 1023.9
20260904035104 77 146 3.0 6.0 0.00 0.00 0.00 59 1023.8
20260904034104 77 149 5.0 7.0 0.00 0.00 0.00 59 1023.7
20260904033104 78 144 4.0 8.0 0.00 0.00 0.00 58 1023.7
20260904032124 78 152 6.0 10.0 0.00 0.00 0.00 58 1023.9
20260904031105 78 156 6.0 9.0 0.00 0.00 0.00 58 1023.9
20260904030145 78 154 6.0 10.0 0.00 0.00 0.00 58 1023.8
20260904025144 78 143 7.0 9.0 0.00 0.00 0.00 59 1023.8
20260904024124 78 152 6.0 9.0 0.00 0.00 0.00 58 1023.8
20260904023103 78 149 7.0 9.0 0.00 0.00 0.00 57 1023.9
20260904022105 78 156 6.0 8.0 0.00 0.00 0.00 57 1023.9
20260904021125 78 155 5.0 10.0 0.00 0.00 0.00 57 1024.0
20260904020104 78 154 6.0 10.0 0.00 0.00 0.00 57 1023.8
20260904015107 78 147 6.0 10.0 0.00 0.00 0.00 59 1023.7
20260904014124 78 153 7.0 11.0 0.00 0.00 0.00 59 1023.7
20260904013104 78 159 8.0 13.0 0.00 0.00 0.00 59 1023.7
20260904012104 78 145 8.0 10.0 0.00 0.00 0.00 59 1023.7
20260904011104 78 161 7.0 11.0 0.00 0.00 0.00 58 1023.7
20260904010104 78 169 7.0 10.0 0.00 0.00 0.00 59 1023.6
20260904005104 78 141 5.0 9.0 0.00 0.00 0.00 58 1023.5
20260904004105 78 172 6.0 10.0 0.00 0.00 0.00 58 1023.7
20260904003105 78 162 8.0 11.0 0.00 0.00 0.00 58 1023.7
20260904002104 78 152 6.0 11.0 0.00 0.00 0.00 57 1023.9
20260904001104 78 148 7.0 11.0 0.00 0.00 0.00 57 1023.8
20260904000124 79 146 5.0 9.0 0.00 0.00 0.00 55 1023.9
20260903235104 79 153 5.0 8.0 0.00 0.00 0.00 54 1023.7
20260903234124 79 145 4.0 7.0 0.00 0.00 0.00 54 1023.8
20260903233124 79 155 6.0 9.0 0.00 0.00 0.00 52 1023.7
20260903232125 79 143 4.0 8.0 0.00 0.00 0.00 52 1023.7
20260903231104 80 186 2.0 10.0 0.00 0.00 0.00 50 1023.7
20260903230104 80 172 3.0 7.0 0.00 0.00 0.00 48 1023.7
20260903225105 80 181 4.0 8.0 0.00 0.00 0.00 48 1023.7
20260903224104 80 151 4.0 7.0 0.00 0.00 0.00 50 1023.7
20260903223104 79 152 3.0 4.0 0.00 0.00 0.00 52 1023.7
20260903222105 78 162 2.0 4.0 0.00 0.00 0.00 55 1023.4
20260903221105 78 157 4.0 4.0 0.00 0.00 0.00 59 1023.4
20260903220104 78 150 4.0 4.0 0.00 0.00 0.00 57 1023.5
20260903215105 78 153 2.0 4.0 0.00 0.00 0.00 56 1023.6
20260903214104 77 0.0 0.0 0.00 0.00 0.00 57 1023.5
20260903213104 77 138 0.0 2.0 0.00 0.00 0.00 61 1023.5
20260903212104 77 0.0 0.0 0.00 0.00 0.00 62 1023.4
20260903211104 77 0.0 0.0 0.00 0.00 0.00 62 1023.6
20260903210104 77 0.0 0.0 0.00 0.00 0.00 62 1023.3
20260903205104 78 327 0.0 2.0 0.00 0.00 0.00 62 1023.4
20260903204104 78 274 2.0 3.0 0.00 0.00 0.00 60 1023.4
20260903203104 78 303 3.0 4.0 0.00 0.00 0.00 60 1023.4
20260903202104 79 293 2.0 3.0 0.00 0.00 0.00 59 1023.4
20260903201124 79 287 3.0 3.0 0.00 0.00 0.00 59 1023.4
20260903200104 79 247 2.0 3.0 0.00 0.00 0.00 58 1023.4
20260903195104 79 298 2.0 3.0 0.00 0.00 0.00 58 1023.2
20260903194104 79 288 3.0 3.0 0.00 0.00 0.00 57 1023.3
20260903193104 80 298 3.0 4.0 0.00 0.00 0.00 57 1023.1
20260903192105 80 290 3.0 4.0 0.00 0.00 0.00 57 1023.2
20260903191105 80 296 3.0 3.0 0.00 0.00 0.00 56 1023.1
20260903190104 80 305 3.0 4.0 0.00 0.00 0.00 57 1022.9
20260903185125 80 287 3.0 4.0 0.00 0.00 0.00 57 1022.9
20260903184124 80 305 2.0 4.0 0.00 0.00 0.00 57 1022.8
20260903183104 80 315 3.0 6.0 0.00 0.00 0.00 56 1022.9
20260903182107 80 311 3.0 6.0 0.00 0.00 0.00 55 1022.9